Вернуться в каталог

COSMOS 1980

АктивенВоенныеLEO
NORAD 19649·PAYLOAD·🇷🇺 Russia

Запущен Nov 23, 1988 с Baikonur Cosmodrome

Loading…

Ближайшие Пролёты (ближайшие 24 часа)

TLE

СвежийSource: Space-Track

Эпоха: Sep 14, 2026, 03:28 UTC

1 19649U 88102A   26257.14457382 -.00000226  00000-0 -91507-4 0  9992
2 19649  71.0008 178.1881 0007283 237.5783 122.4636 14.15229575951804

Отслеживайте COSMOS 1980 в реальном времени с AllMySat

Download on the App Store